Time,TemperatureF,DewpointF,PressureIn,WindDirection,WindDirectionDegrees,WindSpeedMPH,WindSpeedGustMPH,Humidity,HourlyPrecipIn,Conditions,Clouds,dailyrainin,SoftwareType,DateUTC
2013-01-26 00:02:00,33.0,24.0,30.24,SW,221,0.0,2.0,70,0.00,,,0.00,,2013-01-26 06:02:00,
2013-01-26 00:12:00,33.0,24.0,30.24,SW,221,0.0,2.0,70,0.00,,,0.00,,2013-01-26 06:12:00,
2013-01-26 00:21:00,33.0,24.0,30.24,SW,221,0.0,0.0,69,0.00,,,0.00,,2013-01-26 06:21:00,
2013-01-26 00:32:00,33.0,24.0,30.24,SW,221,0.0,0.0,70,0.00,,,0.00,,2013-01-26 06:32:00,
2013-01-26 00:41:00,33.0,24.0,30.24,SW,221,0.0,0.0,70,0.00,,,0.00,,2013-01-26 06:41:00,
2013-01-26 00:51:00,33.0,24.0,30.24,SW,221,0.0,0.0,69,0.00,,,0.00,,2013-01-26 06:51:00,
2013-01-26 01:02:00,34.0,25.0,30.23,SW,221,0.0,0.0,69,0.00,,,0.00,,2013-01-26 07:02:00,
2013-01-26 01:12:00,34.0,25.0,30.23,SW,221,0.0,0.0,69,0.00,,,0.00,,2013-01-26 07:12:00,
2013-01-26 01:21:00,34.0,25.0,30.23,SW,221,0.0,0.0,69,0.00,,,0.00,,2013-01-26 07:21:00,
2013-01-26 01:33:00,35.0,26.0,30.22,SW,221,0.0,1.0,70,0.00,,,0.00,,2013-01-26 07:33:00,
2013-01-26 01:41:00,35.0,26.0,30.22,SW,221,0.0,1.0,70,0.00,,,0.00,,2013-01-26 07:41:00,
2013-01-26 01:52:00,36.0,27.0,30.23,SW,222,0.0,1.0,69,0.00,,,0.00,,2013-01-26 07:52:00,
2013-01-26 02:02:00,35.0,27.0,30.23,WSW,240,0.0,2.0,71,0.00,,,0.00,,2013-01-26 08:02:00,
2013-01-26 02:11:00,35.0,27.0,30.23,WSW,240,0.0,2.0,71,0.00,,,0.00,,2013-01-26 08:11:00,
2013-01-26 02:21:00,35.0,27.0,30.23,WSW,240,0.0,2.0,71,0.00,,,0.00,,2013-01-26 08:21:00,
2013-01-26 02:32:00,35.0,27.0,30.23,West,259,0.0,1.0,72,0.00,,,0.00,,2013-01-26 08:32:00,
2013-01-26 02:42:00,35.0,27.0,30.23,West,259,0.0,1.0,72,0.00,,,0.00,,2013-01-26 08:42:00,
2013-01-26 02:54:00,36.0,28.0,30.22,West,263,0.0,2.0,71,0.00,,,0.00,,2013-01-26 08:54:00,
2013-01-26 03:02:00,37.0,28.0,30.22,WSW,258,0.0,3.0,69,0.00,,,0.00,,2013-01-26 09:02:00,
2013-01-26 03:11:00,37.0,28.0,30.22,WSW,258,0.0,3.0,69,0.00,,,0.00,,2013-01-26 09:11:00,
2013-01-26 03:22:00,37.0,27.0,30.22,WSW,256,0.0,1.0,68,0.00,,,0.00,,2013-01-26 09:22:00,
2013-01-26 03:32:00,37.0,27.0,30.21,WSW,257,0.0,1.0,68,0.00,,,0.00,,2013-01-26 09:32:00,
2013-01-26 03:42:00,37.0,27.0,30.21,WSW,257,0.0,1.0,68,0.00,,,0.00,,2013-01-26 09:42:00,
2013-01-26 03:51:00,37.0,27.0,30.21,WSW,256,0.0,1.0,67,0.00,,,0.00,,2013-01-26 09:51:00,
2013-01-26 04:01:00,37.0,27.0,30.20,WSW,256,0.0,0.0,66,0.00,,,0.00,,2013-01-26 10:01:00,
2013-01-26 04:12:00,37.0,27.0,30.20,WSW,256,0.0,0.0,66,0.00,,,0.00,,2013-01-26 10:12:00,
2013-01-26 04:21:00,37.0,27.0,30.20,WSW,256,0.0,1.0,67,0.00,,,0.00,,2013-01-26 10:21:00,
2013-01-26 04:32:00,38.0,28.0,30.20,WSW,257,0.0,1.0,66,0.00,,,0.00,,2013-01-26 10:32:00,
2013-01-26 04:42:00,38.0,28.0,30.20,WSW,257,0.0,1.0,66,0.00,,,0.00,,2013-01-26 10:42:00,
2013-01-26 04:52:00,38.0,28.0,30.19,West,262,0.0,0.0,66,0.00,,,0.00,,2013-01-26 10:52:00,
2013-01-26 05:01:00,37.0,27.0,30.19,West,262,0.0,0.0,67,0.00,,,0.00,,2013-01-26 11:01:00,
2013-01-26 05:12:00,37.0,27.0,30.19,West,262,0.0,0.0,67,0.00,,,0.00,,2013-01-26 11:12:00,
2013-01-26 05:22:00,36.0,27.0,30.19,West,262,0.0,1.0,70,0.00,,,0.00,,2013-01-26 11:22:00,
2013-01-26 05:32:00,36.0,27.0,30.19,West,262,0.0,1.0,70,0.00,,,0.00,,2013-01-26 11:32:00,
2013-01-26 05:42:00,36.0,27.0,30.19,West,262,0.0,1.0,70,0.00,,,0.00,,2013-01-26 11:42:00,
2013-01-26 05:52:00,35.0,26.0,30.19,West,262,0.0,0.0,70,0.00,,,0.00,,2013-01-26 11:52:00,
2013-01-26 06:02:00,35.0,27.0,30.19,West,262,0.0,0.0,71,0.00,,,0.00,,2013-01-26 12:02:00,
2013-01-26 06:12:00,35.0,27.0,30.19,West,262,0.0,0.0,71,0.00,,,0.00,,2013-01-26 12:12:00,
2013-01-26 06:22:00,35.0,27.0,30.19,West,262,0.0,1.0,72,0.00,,,0.00,,2013-01-26 12:22:00,
2013-01-26 06:33:00,34.0,26.0,30.19,West,262,0.0,1.0,72,0.00,,,0.00,,2013-01-26 12:33:00,
2013-01-26 06:42:00,34.0,26.0,30.19,West,262,0.0,1.0,72,0.00,,,0.00,,2013-01-26 12:42:00,
2013-01-26 06:52:00,33.0,26.0,30.19,West,263,0.0,1.0,74,0.00,,,0.00,,2013-01-26 12:52:00,
2013-01-26 07:03:00,32.0,25.0,30.19,West,263,0.0,1.0,75,0.00,,,0.00,,2013-01-26 13:03:00,
2013-01-26 07:12:00,32.0,25.0,30.19,West,263,0.0,1.0,75,0.00,,,0.00,,2013-01-26 13:12:00,
2013-01-26 07:22:00,31.0,24.0,30.19,West,261,0.0,1.0,76,0.00,,,0.00,,2013-01-26 13:22:00,
2013-01-26 07:32:00,31.0,24.0,30.20,WSW,246,0.0,2.0,76,0.00,,,0.00,,2013-01-26 13:32:00,
2013-01-26 07:42:00,31.0,24.0,30.20,WSW,246,0.0,2.0,76,0.00,,,0.00,,2013-01-26 13:42:00,
2013-01-26 07:52:00,32.0,26.0,30.19,South,189,0.0,2.0,77,0.00,,,0.00,,2013-01-26 13:52:00,
2013-01-26 08:03:00,31.0,24.0,30.20,South,180,0.0,1.0,76,0.00,,,0.00,,2013-01-26 14:03:00,
2013-01-26 08:12:00,31.0,24.0,30.20,South,180,0.0,1.0,76,0.00,,,0.00,,2013-01-26 14:12:00,
2013-01-26 08:22:00,31.0,25.0,30.20,South,180,0.0,1.0,77,0.00,,,0.00,,2013-01-26 14:22:00,
2013-01-26 08:32:00,31.0,25.0,30.21,South,180,0.0,1.0,77,0.00,,,0.00,,2013-01-26 14:32:00,
2013-01-26 08:43:00,31.0,25.0,30.21,South,180,0.0,1.0,77,0.00,,,0.00,,2013-01-26 14:43:00,
2013-01-26 08:52:00,32.0,26.0,30.20,South,180,0.0,1.0,78,0.00,,,0.00,,2013-01-26 14:52:00,
2013-01-26 09:03:00,34.0,28.0,30.21,South,180,0.0,1.0,77,0.00,,,0.00,,2013-01-26 15:03:00,
2013-01-26 09:12:00,34.0,28.0,30.21,South,180,0.0,1.0,77,0.00,,,0.00,,2013-01-26 15:12:00,
2013-01-26 09:22:00,36.0,28.0,30.21,SSE,168,0.0,1.0,72,0.00,,,0.00,,2013-01-26 15:22:00,
2013-01-26 09:32:00,39.0,29.0,30.21,SE,144,2.0,5.0,68,0.00,,,0.00,,2013-01-26 15:32:00,
2013-01-26 09:43:00,39.0,29.0,30.21,SE,144,2.0,5.0,68,0.00,,,0.00,,2013-01-26 15:43:00,
2013-01-26 09:52:00,41.0,29.0,30.20,SSE,162,3.0,7.0,63,0.00,,,0.00,,2013-01-26 15:52:00,
2013-01-26 10:02:00,44.0,29.0,30.20,ESE,123,5.0,10.0,55,0.00,,,0.00,,2013-01-26 16:02:00,
2013-01-26 10:12:00,44.0,29.0,30.20,ESE,123,5.0,10.0,55,0.00,,,0.00,,2013-01-26 16:12:00,
2013-01-26 10:22:00,46.0,28.0,30.20,SSW,213,7.0,13.0,50,0.00,,,0.00,,2013-01-26 16:22:00,
2013-01-26 10:33:00,48.0,28.0,30.20,SSE,156,6.0,15.0,46,0.00,,,0.00,,2013-01-26 16:33:00,
2013-01-26 10:42:00,48.0,28.0,30.20,SSE,156,6.0,15.0,46,0.00,,,0.00,,2013-01-26 16:42:00,
2013-01-26 10:53:00,51.0,28.0,30.20,SE,142,7.0,12.0,41,0.00,,,0.00,,2013-01-26 16:53:00,
2013-01-26 11:03:00,51.0,28.0,30.20,SW,217,6.0,12.0,41,0.00,,,0.00,,2013-01-26 17:03:00,
2013-01-26 11:12:00,51.0,28.0,30.20,SW,217,6.0,12.0,41,0.00,,,0.00,,2013-01-26 17:12:00,
2013-01-26 11:22:00,53.0,28.0,30.19,SW,222,8.0,13.0,38,0.00,,,0.00,,2013-01-26 17:22:00,
2013-01-26 11:33:00,53.0,27.0,30.19,SSW,202,8.0,14.0,37,0.00,,,0.00,,2013-01-26 17:33:00,
2013-01-26 11:42:00,53.0,27.0,30.19,SSW,202,8.0,14.0,37,0.00,,,0.00,,2013-01-26 17:42:00,
2013-01-26 11:52:00,54.0,28.0,30.18,South,176,7.0,16.0,36,0.00,,,0.00,,2013-01-26 17:52:00,
2013-01-26 12:02:00,56.0,28.0,30.17,SW,229,7.0,14.0,34,0.00,,,0.00,,2013-01-26 18:02:00,
2013-01-26 12:12:00,56.0,28.0,30.17,SW,229,7.0,14.0,34,0.00,,,0.00,,2013-01-26 18:12:00,
2013-01-26 12:22:00,56.0,26.0,30.16,SW,232,8.0,16.0,31,0.00,,,0.00,,2013-01-26 18:22:00,
2013-01-26 12:33:00,57.0,24.0,30.14,SSW,196,9.0,15.0,28,0.00,,,0.00,,2013-01-26 18:33:00,
2013-01-26 12:42:00,57.0,24.0,30.14,SSW,196,9.0,15.0,28,0.00,,,0.00,,2013-01-26 18:42:00,
2013-01-26 12:52:00,58.0,24.0,30.13,SW,219,9.0,15.0,27,0.00,,,0.00,,2013-01-26 18:52:00,
2013-01-26 13:03:00,59.0,24.0,30.12,SW,219,9.0,17.0,26,0.00,,,0.00,,2013-01-26 19:03:00,
2013-01-26 13:12:00,59.0,24.0,30.12,SW,219,9.0,17.0,26,0.00,,,0.00,,2013-01-26 19:12:00,
2013-01-26 13:22:00,59.0,24.0,30.10,SSW,211,10.0,16.0,26,0.00,,,0.00,,2013-01-26 19:22:00,
2013-01-26 13:32:00,59.0,23.0,30.10,SW,217,10.0,17.0,25,0.00,,,0.00,,2013-01-26 19:32:00,
2013-01-26 13:42:00,59.0,23.0,30.10,SW,217,10.0,17.0,25,0.00,,,0.00,,2013-01-26 19:42:00,
2013-01-26 13:52:00,59.0,22.0,30.08,SSW,205,10.0,16.0,24,0.00,,,0.00,,2013-01-26 19:52:00,
2013-01-26 14:02:00,60.0,23.0,30.08,SW,232,9.0,16.0,24,0.00,,,0.00,,2013-01-26 20:02:00,
2013-01-26 14:11:00,60.0,23.0,30.08,SW,232,9.0,16.0,24,0.00,,,0.00,,2013-01-26 20:11:00,
2013-01-26 14:21:00,60.0,23.0,30.08,SW,232,9.0,16.0,24,0.00,,,0.00,,2013-01-26 20:21:00,
2013-01-26 14:32:00,61.0,23.0,30.06,SW,220,7.0,14.0,23,0.00,,,0.00,,2013-01-26 20:32:00,
2013-01-26 14:42:00,61.0,23.0,30.06,SW,220,7.0,14.0,23,0.00,,,0.00,,2013-01-26 20:42:00,
2013-01-26 14:52:00,61.0,23.0,30.06,SW,219,8.0,15.0,23,0.00,,,0.00,,2013-01-26 20:52:00,
2013-01-26 15:02:00,61.0,22.0,30.05,SW,215,9.0,14.0,22,0.00,,,0.00,,2013-01-26 21:02:00,
2013-01-26 15:12:00,61.0,22.0,30.05,SW,215,9.0,14.0,22,0.00,,,0.00,,2013-01-26 21:12:00,
2013-01-26 15:22:00,61.0,22.0,30.05,SSE,150,9.0,15.0,22,0.00,,,0.00,,2013-01-26 21:22:00,
2013-01-26 15:32:00,61.0,21.0,30.04,South,181,8.0,13.0,21,0.00,,,0.00,,2013-01-26 21:32:00,
2013-01-26 15:42:00,61.0,21.0,30.04,South,181,8.0,13.0,21,0.00,,,0.00,,2013-01-26 21:42:00,
2013-01-26 15:51:00,62.0,20.0,30.04,SSE,154,7.0,14.0,20,0.00,,,0.00,,2013-01-26 21:51:00,
2013-01-26 16:01:00,61.0,20.0,30.04,South,173,8.0,13.0,20,0.00,,,0.00,,2013-01-26 22:01:00,
2013-01-26 16:11:00,61.0,20.0,30.04,South,173,8.0,13.0,20,0.00,,,0.00,,2013-01-26 22:11:00,
2013-01-26 16:22:00,61.0,21.0,30.03,South,171,7.0,15.0,21,0.00,,,0.00,,2013-01-26 22:22:00,
2013-01-26 16:32:00,60.0,21.0,30.03,SE,142,8.0,14.0,22,0.00,,,0.00,,2013-01-26 22:32:00,
2013-01-26 16:42:00,60.0,21.0,30.03,SE,142,8.0,14.0,22,0.00,,,0.00,,2013-01-26 22:42:00,
2013-01-26 16:52:00,59.0,21.0,30.02,South,176,6.0,13.0,23,0.00,,,0.00,,2013-01-26 22:52:00,
2013-01-26 17:01:00,58.0,20.0,30.02,SSE,161,7.0,13.0,23,0.00,,,0.00,,2013-01-26 23:01:00,
2013-01-26 17:12:00,58.0,20.0,30.02,SSE,161,7.0,13.0,23,0.00,,,0.00,,2013-01-26 23:12:00,
2013-01-26 17:22:00,57.0,22.0,30.01,SSE,157,5.0,13.0,25,0.00,,,0.00,,2013-01-26 23:22:00,
2013-01-26 17:32:00,55.0,22.0,30.01,South,178,3.0,9.0,27,0.00,,,0.00,,2013-01-26 23:32:00,
2013-01-26 17:42:00,55.0,22.0,30.01,South,178,3.0,9.0,27,0.00,,,0.00,,2013-01-26 23:42:00,
2013-01-26 17:52:00,54.0,23.0,30.01,South,174,3.0,7.0,30,0.00,,,0.00,,2013-01-26 23:52:00,
2013-01-26 18:02:00,52.0,23.0,30.01,South,184,1.0,5.0,32,0.00,,,0.00,,2013-01-27 00:02:00,
2013-01-26 18:11:00,52.0,23.0,30.01,South,184,1.0,5.0,32,0.00,,,0.00,,2013-01-27 00:11:00,
2013-01-26 18:21:00,50.0,23.0,30.01,South,176,1.0,3.0,35,0.00,,,0.00,,2013-01-27 00:21:00,
2013-01-26 18:32:00,49.0,25.0,30.01,SSE,161,1.0,4.0,38,0.00,,,0.00,,2013-01-27 00:32:00,
2013-01-26 18:42:00,49.0,25.0,30.01,SSE,161,1.0,4.0,38,0.00,,,0.00,,2013-01-27 00:42:00,
2013-01-26 18:51:00,48.0,25.0,30.02,South,176,1.0,5.0,41,0.00,,,0.00,,2013-01-27 00:51:00,
2013-01-26 19:01:00,47.0,26.0,30.02,SSE,166,0.0,3.0,43,0.00,,,0.00,,2013-01-27 01:01:00,
2013-01-26 19:11:00,47.0,26.0,30.02,SSE,166,0.0,3.0,43,0.00,,,0.00,,2013-01-27 01:11:00,
2013-01-26 19:22:00,47.0,27.0,30.01,SSE,148,1.0,5.0,45,0.00,,,0.00,,2013-01-27 01:22:00,
2013-01-26 19:32:00,48.0,27.0,30.00,SE,135,1.0,7.0,43,0.00,,,0.00,,2013-01-27 01:32:00,
2013-01-26 19:41:00,48.0,27.0,30.00,SE,135,1.0,7.0,43,0.00,,,0.00,,2013-01-27 01:41:00,
2013-01-26 19:52:00,49.0,29.0,29.99,SE,142,2.0,6.0,46,0.00,,,0.00,,2013-01-27 01:52:00,
2013-01-26 20:01:00,49.0,30.0,29.99,SE,139,1.0,5.0,47,0.00,,,0.00,,2013-01-27 02:01:00,
2013-01-26 20:11:00,49.0,30.0,29.99,SE,139,1.0,5.0,47,0.00,,,0.00,,2013-01-27 02:11:00,
2013-01-26 20:22:00,49.0,30.0,29.99,SE,140,3.0,8.0,47,0.00,,,0.00,,2013-01-27 02:22:00,
2013-01-26 20:32:00,49.0,30.0,29.99,SE,144,3.0,8.0,47,0.00,,,0.00,,2013-01-27 02:32:00,
2013-01-26 20:42:00,49.0,30.0,29.99,SE,144,3.0,8.0,47,0.00,,,0.00,,2013-01-27 02:42:00,
2013-01-26 20:52:00,49.0,31.0,29.99,SSE,166,4.0,8.0,49,0.00,,,0.00,,2013-01-27 02:52:00,
2013-01-26 21:02:00,50.0,34.0,29.99,South,189,4.0,9.0,53,0.00,,,0.00,,2013-01-27 03:02:00,
2013-01-26 21:11:00,50.0,34.0,29.99,South,189,4.0,9.0,53,0.00,,,0.00,,2013-01-27 03:11:00,
2013-01-26 21:21:00,50.0,35.0,29.99,SSW,198,4.0,11.0,56,0.00,,,0.00,,2013-01-27 03:21:00,
2013-01-26 21:32:00,50.0,36.0,30.00,SW,226,3.0,8.0,58,0.00,,,0.00,,2013-01-27 03:32:00,
2013-01-26 21:42:00,50.0,36.0,30.00,SW,226,3.0,8.0,58,0.00,,,0.00,,2013-01-27 03:42:00,
2013-01-26 21:51:00,50.0,36.0,29.98,South,180,3.0,7.0,58,0.00,,,0.00,,2013-01-27 03:51:00,
2013-01-26 22:02:00,50.0,36.0,29.98,SSE,159,4.0,7.0,58,0.00,,,0.00,,2013-01-27 04:02:00,
2013-01-26 22:11:00,50.0,36.0,29.98,SSE,159,4.0,7.0,58,0.00,,,0.00,,2013-01-27 04:11:00,
2013-01-26 22:21:00,49.0,37.0,29.99,South,189,3.0,8.0,64,0.00,,,0.00,,2013-01-27 04:21:00,
2013-01-26 22:32:00,47.0,40.0,29.99,SSW,206,2.0,7.0,77,0.01,,,0.01,,2013-01-27 04:32:00,
2013-01-26 22:41:00,47.0,40.0,29.99,SSW,206,2.0,7.0,77,0.01,,,0.01,,2013-01-27 04:41:00,
2013-01-26 22:51:00,45.0,40.0,29.98,SSE,163,5.0,10.0,81,0.02,,,0.02,,2013-01-27 04:51:00,
2013-01-26 23:03:00,44.0,40.0,29.98,SSE,163,4.0,9.0,85,0.03,,,0.03,,2013-01-27 05:03:00,
2013-01-26 23:12:00,44.0,40.0,29.98,SSE,163,4.0,9.0,85,0.03,,,0.03,,2013-01-27 05:12:00,
2013-01-26 23:22:00,44.0,40.0,29.97,SSE,158,3.0,6.0,87,0.04,,,0.04,,2013-01-27 05:22:00,
2013-01-26 23:32:00,43.0,40.0,29.97,South,173,3.0,8.0,88,0.03,,,0.04,,2013-01-27 05:32:00,
2013-01-26 23:41:00,43.0,40.0,29.97,South,173,3.0,8.0,88,0.03,,,0.04,,2013-01-27 05:41:00,
2013-01-26 23:52:00,43.0,40.0,29.97,South,170,2.0,6.0,90,0.03,,,0.05,,2013-01-27 05:52:00,